Date String (YYYY-MM-DD hh:mm:ss) UTC,Instrument flags,Ambient pressure (hPa),Sample flow (lpm),Bypass flow (lpm),Sample temperature (°C),Ambient temperature (°C),ASC tube jacket temperature (°C),LED temperature (°C),Box temperature (°C),Sample RH (%),Span deviation,Mass concentration (μg/m³),Mass concentration (μg/m³),Mass concentration (μg/m³)
DateTimeUTC,F1_M11,P_M11,Q1_M11,Q2_M11,T1_M11,T2_M11,T3_M11,T4_M11,T5_M11,U1_M11,ZSPAN_M11,X0_M11,X2_M11,X1_M11
2022-02-15 05:00:00,,0820.3,5.01,0.00,24.8,24.0,00.0,33.8,26.6,08.5,0000.0,0017.74,0008.75,0007.82
2022-02-15 05:01:00,,0820.3,4.99,0.00,24.8,24.0,00.0,33.8,26.6,08.4,0000.0,0017.71,0008.83,0007.87
2022-02-15 05:02:00,,0820.2,5.01,0.00,24.8,24.0,00.0,33.8,26.6,08.4,0000.0,0017.41,0008.85,0007.90
2022-02-15 05:03:00,,0820.2,4.99,0.00,24.8,24.0,00.0,33.8,26.5,08.5,0000.0,0016.82,0008.88,0007.92
2022-02-15 05:04:00,,0820.3,5.01,0.00,24.8,24.0,00.0,33.8,26.6,08.6,0000.0,0016.58,0008.94,0007.95
2022-02-15 05:05:00,,0820.2,5.00,0.00,24.8,24.0,00.0,33.8,26.6,08.5,0000.0,0015.89,0008.92,0007.97
2022-02-15 05:06:00,,0820.2,4.99,0.00,24.8,24.0,00.0,33.8,26.6,08.5,0000.0,0016.82,0008.94,0007.98
2022-02-15 05:07:00,,0820.3,5.01,0.00,24.8,24.0,00.0,33.8,26.6,08.8,0000.0,0017.61,0008.95,0008.01
2022-02-15 05:08:00,,0820.3,4.99,0.00,24.8,24.0,00.0,33.8,26.6,08.7,0000.0,0018.44,0008.98,0008.04
2022-02-15 05:09:00,,0820.3,5.00,0.00,24.8,24.0,00.0,33.8,26.6,08.7,0000.0,0018.04,0008.94,0008.06
2022-02-15 05:10:00,,0820.2,5.01,0.00,24.8,24.0,00.0,33.8,26.5,08.7,0000.4,0017.60,0008.91,0008.06
2022-02-15 05:11:00,,0820.2,4.99,0.00,24.8,24.0,00.0,33.8,26.5,08.9,0001.7,0017.98,0008.97,0008.07
2022-02-15 05:12:00,,0820.2,5.01,0.00,24.8,24.0,00.0,33.8,26.5,09.2,0000.9,0019.44,0009.07,0008.14
2022-02-15 05:13:00,,0820.2,4.99,0.00,24.7,24.0,00.0,33.8,26.5,09.2,0000.0,0020.44,0009.20,0008.22
2022-02-15 05:14:00,,0820.2,5.02,0.00,24.7,24.0,00.0,33.8,26.5,09.1,0000.0,0020.80,0009.26,0008.29
2022-02-15 05:15:00,,0820.1,5.00,0.00,24.7,24.0,00.0,33.7,26.5,09.0,0000.0,0020.84,0009.28,0008.32
2022-02-15 05:16:00,,0820.2,4.99,0.00,24.7,24.0,00.0,33.7,26.5,09.0,0000.0,0020.78,0009.33,0008.37
2022-02-15 05:17:00,,0820.2,5.03,0.00,24.7,23.9,00.0,33.7,26.5,08.9,0000.7,0020.02,0009.39,0008.42
2022-02-15 05:18:00,,0820.2,4.99,0.00,24.7,23.9,00.0,33.7,26.5,08.9,0000.0,0019.07,0009.37,0008.41
2022-02-15 05:19:00,,0820.1,4.99,0.00,24.7,23.9,00.0,33.7,26.5,08.9,0000.0,0018.50,0009.35,0008.38
2022-02-15 05:20:00,,0820.1,5.02,0.00,24.7,23.8,00.0,33.7,26.4,08.6,0000.0,0019.10,0009.35,0008.35
2022-02-15 05:21:00,,0820.1,4.99,0.00,24.6,23.8,00.0,33.7,26.3,08.6,0000.0,0019.27,0009.33,0008.31
2022-02-15 05:22:00,,0820.0,5.00,0.00,24.6,23.8,00.0,33.7,26.3,08.5,0000.0,0019.00,0009.33,0008.28
2022-02-15 05:23:00,,0820.1,5.00,0.00,24.6,23.8,00.0,33.7,26.3,08.0,0000.0,0017.66,0009.21,0008.13
2022-02-15 05:24:00,,0820.1,5.00,0.00,24.6,23.7,00.0,33.7,26.3,08.0,0000.0,0016.83,0009.00,0007.97
2022-02-15 05:25:00,,0820.0,5.01,0.00,24.5,23.7,00.0,33.6,26.3,07.3,0000.0,0016.55,0008.78,0007.75
2022-02-15 05:26:00,,0820.0,4.99,0.00,24.5,23.6,00.0,33.6,26.2,07.0,0000.0,0015.88,0008.48,0007.46
2022-02-15 05:27:00,,0819.9,4.99,0.00,24.4,23.6,00.0,33.6,26.1,07.2,0000.0,0015.48,0008.18,0007.18
2022-02-15 05:28:00,,0819.9,5.01,0.00,24.4,23.5,00.0,33.6,26.1,07.6,0000.0,0015.87,0007.89,0006.94
2022-02-15 05:29:00,,0819.8,5.00,0.00,24.4,23.6,00.0,33.5,26.1,07.9,0000.0,0016.35,0007.68,0006.76
2022-02-15 05:30:00,,0819.9,5.01,0.00,24.4,23.6,00.0,33.5,26.1,08.1,0000.0,0016.00,0007.48,0006.59
2022-02-15 05:31:00,,0820.0,5.00,0.00,24.4,23.6,00.0,33.5,26.1,08.1,0000.0,0015.71,0007.29,0006.44
2022-02-15 05:32:00,,0820.0,5.01,0.00,24.4,23.6,00.0,33.5,26.1,08.2,0000.0,0015.25,0007.19,0006.31
2022-02-15 05:33:00,,0820.0,4.99,0.00,24.4,23.6,00.0,33.5,26.1,07.5,0000.0,0014.80,0006.92,0006.10
2022-02-15 05:34:00,,0820.0,5.01,0.00,24.4,23.6,00.0,33.5,26.1,06.6,0000.0,0014.15,0006.55,0005.83
2022-02-15 05:35:00,,0820.0,4.99,0.00,24.4,23.6,00.0,33.5,26.1,07.3,0000.0,0013.73,0006.33,0005.64
2022-02-15 05:36:00,,0820.0,4.99,0.00,24.4,23.6,00.0,33.5,26.1,07.2,0000.0,0013.39,0006.16,0005.50
2022-02-15 05:37:00,,0819.9,5.01,0.00,24.4,23.7,00.0,33.5,26.1,07.6,0000.0,0013.17,0006.11,0005.48
2022-02-15 05:38:00,,0819.9,5.00,0.00,24.4,23.7,00.0,33.5,26.1,08.1,0000.0,0013.25,0006.18,0005.53
2022-02-15 05:39:00,,0819.9,5.00,0.00,24.4,23.6,00.0,33.4,26.1,07.6,0000.0,0012.49,0006.11,0005.49
2022-02-15 05:40:00,,0819.9,4.99,0.00,24.4,23.6,00.0,33.4,26.1,06.7,0000.0,0011.23,0005.89,0005.29
2022-02-15 05:41:00,,0819.9,5.01,0.00,24.3,23.6,00.0,33.4,26.0,06.2,0000.0,0010.46,0005.57,0005.00
2022-02-15 05:42:00,,0819.9,4.99,0.00,24.3,23.4,00.0,33.4,25.9,06.2,0000.0,0009.23,0005.26,0004.73
2022-02-15 05:43:00,,0819.9,5.00,0.00,24.2,23.3,00.0,33.4,25.9,05.5,0000.0,0009.05,0004.88,0004.43
2022-02-15 05:44:00,,0819.8,5.00,0.00,24.2,23.2,00.0,33.4,25.8,05.1,0000.0,0008.63,0004.58,0004.15
2022-02-15 05:45:00,,0819.8,5.01,0.00,24.1,23.2,00.0,33.3,25.7,05.0,0000.0,0008.36,0004.40,0003.98
2022-02-15 05:46:00,,0819.8,4.99,0.00,24.1,23.1,00.0,33.3,25.6,04.9,0000.0,0007.88,0004.15,0003.76
2022-02-15 05:47:00,,0819.9,5.00,0.00,24.0,23.1,00.0,33.3,25.6,04.9,0000.0,0007.36,0003.95,0003.55
2022-02-15 05:48:00,,0820.0,5.00,0.00,24.0,23.1,00.0,33.2,25.5,04.9,0000.0,0006.76,0003.69,0003.34
2022-02-15 05:49:00,,0819.9,4.99,0.00,24.0,23.1,00.0,33.2,25.5,05.2,0000.0,0005.87,0003.35,0002.95
2022-02-15 05:50:00,,0819.9,5.01,0.00,24.0,23.1,00.0,33.2,25.6,05.9,0000.0,0005.36,0003.12,0002.57
2022-02-15 05:51:00,,0819.9,4.98,0.00,24.0,23.2,00.0,33.2,25.6,05.5,0000.0,0005.46,0002.93,0002.38
2022-02-15 05:52:00,,0819.9,5.01,0.00,24.0,23.1,00.0,33.2,25.6,05.3,0000.0,0005.68,0002.83,0002.28
2022-02-15 05:53:00,,0819.9,4.99,0.00,24.0,23.1,00.0,33.2,25.6,05.5,0000.0,0006.02,0002.71,0002.18
2022-02-15 05:54:00,,0819.9,5.01,0.00,24.0,23.2,00.0,33.1,25.6,06.1,0000.0,0005.65,0002.70,0002.17
2022-02-15 05:55:00,,0819.9,4.99,0.00,24.0,23.2,00.0,33.1,25.6,06.4,0000.0,0006.10,0002.88,0002.27
2022-02-15 05:56:00,,0819.9,5.01,0.00,24.0,23.2,00.0,33.1,25.6,06.0,0000.0,0006.06,0002.94,0002.34
2022-02-15 05:57:00,,0820.0,4.99,0.00,24.0,23.2,00.0,33.1,25.6,05.7,0000.0,0006.17,0003.00,0002.36
2022-02-15 05:58:00,,0819.9,5.00,0.00,24.0,23.3,00.0,33.1,25.7,05.3,0000.0,0006.18,0003.02,0002.37
2022-02-15 05:59:00,,0819.9,5.01,0.00,24.0,23.2,00.0,33.1,25.7,05.1,0000.0,0006.21,0003.03,0002.38
